Location: Newark
(34.0131°N, 4.3314°W)
Time: 22:59:12
(UTC+00:00)

Explorer 7 - Pass Details

Date: 19 October 2019
Orbit: 485 x 680 km, 50.3° (Epoch: 14 November)

Event Time Altitude Azimuth Distance (km) Brightness Sun altitude
Rises 09:50:57 0° 188° (S) 2,583 10.7 36.1°
Reaches altitude 10° 09:53:52 10° 165° (SSE) 1,679 10.3 36.5°
Maximum altitude 09:56:06 15° 129° (SE) 1,382 10.3 36.8°
Drops below altitude 10° 09:58:19 10° 92° (E) 1,663 9.9 37.1°
Sets 10:01:11 0° 69° (ENE) 2,543 10.4 37.5°
